Weather History for KHPN - April, 2014

Change the Weather History Date:

Monday, April 28, 2014

  Actual Average Record
Temperature  
Mean Temperature 50 °F -  
Max Temperature 64 °F 62 °F 89 °F (1990)
Min Temperature 39 °F 42 °F 34 °F (1987)
Degree Days  
Heating Degree Days 14    
Moisture  
Dew Point 33 °F    
Average Humidity 52    
Maximum Humidity 77    
Minimum Humidity 30    
Precipitation  
Precipitation 0.00 in - - ()
Sea Level Pressure  
Sea Level Pressure 30.07 in    
Wind  
Wind Speed 9 mph (NNW)    
Max Wind Speed 16 mph    
Max Gust Speed 22 mph    
Visibility 10 miles    
Events      
Averages and records for this station are not official NWS values.
T = Trace of Precipitation, MM = Missing Value Source: NWS Daily Summary

Daily Weather History Graph

Daily Weather History Graph

Search for Another Location

Airport or City:

Trip Planner

Search our weather history database for the weather conditions in past years. The results will help you decide how hot, cold, wet, or windy it might be!

Date:

Astronomy

Apr. 28, 2014 Rise Set
Actual Time 5:56 AM EDT 7:48 PM EDT
Civil Twilight 5:27 AM EDT 8:18 PM EDT
Nautical Twilight 4:51 AM EDT 8:54 PM EDT
Astronomical Twilight 4:12 AM EDT 9:33 PM EDT
Moon 5:33 AM EDT (4/28) 7:23 PM EDT (4/28)
Length of Visible Light 14h 51m
Length of Day
13h 51m
Waning Crescent, 0% of the Moon is Illuminated
Apr 28
Waning Crescent
Apr 29
New
May 6
First Quarter
May 14
Full
May 21
Last Quarter

Hourly Weather History & Observations

Time (EDT) Temp. Windchill Dew Point Humidity Pressure Visibility Wind Dir Wind Speed Gust Speed Precip Events Conditions
12:56 AM 44.1 °F 38.6 °F 35.1 °F 71% 30.12 in 10.0 mi NNW 10.4 mph - N/A   Partly Cloudy
1:56 AM 45.0 °F 40.1 °F 34.0 °F 65% 30.09 in 10.0 mi North 9.2 mph - N/A   Clear
2:56 AM 44.1 °F 40.1 °F 33.1 °F 65% 30.08 in 10.0 mi North 6.9 mph - N/A   Clear
3:56 AM 43.0 °F 40.3 °F 34.0 °F 71% 30.06 in 10.0 mi North 4.6 mph - N/A   Clear
4:56 AM 41.0 °F 35.2 °F 34.0 °F 76% 30.07 in 10.0 mi NW 9.2 mph - N/A   Clear
5:56 AM 39.9 °F 33.9 °F 33.1 °F 77% 30.09 in 10.0 mi NNW 9.2 mph - N/A   Clear
6:56 AM 43.0 °F 38.2 °F 35.1 °F 74% 30.11 in 10.0 mi NW 8.1 mph - N/A   Clear
7:56 AM 46.9 °F - 35.1 °F 63% 30.09 in 10.0 mi NNW 13.8 mph - N/A   Clear
8:56 AM 50.0 °F - 33.1 °F 52% 30.10 in 10.0 mi North 16.1 mph - N/A   Partly Cloudy
9:56 AM 52.0 °F - 32.0 °F 47% 30.10 in 10.0 mi North 12.7 mph 21.9 mph N/A   Partly Cloudy
10:56 AM 54.0 °F - 33.1 °F 45% 30.09 in 10.0 mi NW 11.5 mph - N/A   Partly Cloudy
11:56 AM 57.0 °F - 33.1 °F 40% 30.07 in 10.0 mi NW 8.1 mph - N/A   Partly Cloudy
12:56 PM 57.9 °F - 32.0 °F 37% 30.04 in 10.0 mi NNW 11.5 mph 19.6 mph N/A   Clear
1:56 PM 59.0 °F - 28.9 °F 32% 30.03 in 10.0 mi NNE 5.8 mph - N/A   Clear
2:56 PM 61.0 °F - 30.0 °F 31% 30.01 in 10.0 mi WNW 10.4 mph - N/A   Clear
3:56 PM 62.1 °F - 30.0 °F 30% 30.01 in 10.0 mi WNW 8.1 mph - N/A   Clear
4:56 PM 62.1 °F - 30.0 °F 30% 30.01 in 10.0 mi NNW 6.9 mph - N/A   Scattered Clouds
5:56 PM 61.0 °F - 30.9 °F 32% 30.02 in 10.0 mi NW 4.6 mph - N/A   Scattered Clouds
6:56 PM 60.1 °F - 30.9 °F 33% 30.02 in 10.0 mi Variable 3.5 mph - N/A   Clear
7:56 PM 57.9 °F - 30.0 °F 35% 30.04 in 10.0 mi Calm Calm - N/A   Clear
8:56 PM 52.0 °F - 36.0 °F 54% 30.07 in 10.0 mi SSE 5.8 mph - N/A   Clear
9:56 PM 52.0 °F - 36.0 °F 54% 30.09 in 10.0 mi Variable 3.5 mph - N/A   Clear
10:56 PM 51.1 °F - 37.0 °F 59% 30.12 in 10.0 mi ESE 9.2 mph - N/A   Mostly Cloudy
11:56 PM 48.9 °F - 37.0 °F 64% 30.15 in 10.0 mi East 10.4 mph 16.1 mph N/A   Mostly Cloudy